DateTimeUTC,F1_A11,F1_S11,BsB_S11,BsG_S11,BsR_S11,BbsB_S11,BbsG_S11,BbsR_S11,BaB_A11,BaG_A11,BaR_A11,Tu_S11,T_S11,Uu_S11,U_S11,P_S11,T1_A11
2021-05-28T14:00:00Z,00000200,20000000,,,,,,,0000.20,0000.34,0000.27,18.7,25.0,08.7,05.9,0673.9,30.9
2021-05-28T14:01:00Z,00000200,20000000,,,,,,,0000.05,-000.15,-000.11,18.7,25.0,08.7,05.9,0673.9,30.9
2021-05-28T14:02:00Z,00000200,20000000,,,,,,,-000.21,-000.09,0000.04,18.7,25.0,08.7,05.9,0673.9,30.9
2021-05-28T14:03:00Z,00000200,60000000,,,,,,,0000.89,0000.52,0000.52,18.7,25.0,08.7,05.9,0673.9,30.9
2021-05-28T14:04:00Z,00000200,40000000,0002.14,0000.99,0000.73,0000.42,0000.38,-000.04,0000.33,0000.32,0000.43,18.7,24.9,08.9,06.1,0674.9,30.9
2021-05-28T14:05:00Z,00000200,00000000,0001.30,0001.00,0000.72,0000.48,-000.02,0000.01,0000.59,0001.18,0000.43,18.8,24.8,09.0,06.2,0675.0,30.9
2021-05-28T14:06:00Z,00000200,00000000,0001.83,0001.16,0000.52,0000.38,0000.11,-000.25,0000.95,0000.45,0000.58,18.8,24.8,09.2,06.3,0675.0,30.9
2021-05-28T14:07:00Z,00000200,00000000,0001.92,0001.50,0000.38,0000.45,0000.19,0000.00,0000.63,0000.67,0000.33,18.8,24.8,09.2,06.4,0675.1,30.9
2021-05-28T14:08:00Z,00000200,00000000,0001.50,0001.19,0000.87,0000.28,-000.01,0000.23,0000.31,-000.14,0000.56,18.8,24.8,09.3,06.5,0675.1,30.9
2021-05-28T14:09:00Z,00000200,00000000,0001.03,0001.34,0000.55,0000.59,0000.07,0000.07,0000.85,0000.91,0000.11,18.8,24.8,09.2,06.4,0675.0,30.9
2021-05-28T14:10:00Z,00000200,00000000,0001.29,0001.16,0000.86,0000.26,0000.15,-000.04,0000.41,0000.68,0000.39,18.8,24.8,08.9,06.2,0675.0,30.9
2021-05-28T14:11:00Z,00000200,00000000,0002.04,0001.15,0000.61,0000.63,0000.27,-000.07,0000.76,0000.47,0000.41,18.8,24.8,09.0,06.2,0675.0,30.9
2021-05-28T14:12:00Z,00000200,00000000,0002.19,0001.03,0000.23,0000.23,0000.30,0000.11,0000.72,0000.44,0000.53,18.8,24.8,08.9,06.2,0675.0,30.9
2021-05-28T14:13:00Z,00000200,00000000,0001.90,0001.16,0000.62,0000.52,0000.33,0000.07,0000.29,0000.73,0000.38,18.8,24.8,09.0,06.2,0675.1,30.9
2021-05-28T14:14:00Z,00000200,00000000,0001.71,0001.24,0000.62,0000.65,0000.36,-000.07,0000.80,0000.42,0000.76,18.8,24.8,09.1,06.3,0675.1,30.9
2021-05-28T14:15:00Z,00000200,00000000,0002.17,0001.27,0000.68,0000.54,0000.35,0000.11,0000.82,0001.05,0000.47,18.8,24.8,09.0,06.2,0675.0,30.9
2021-05-28T14:16:00Z,00000200,00000000,0001.75,0001.32,0000.74,0000.08,0000.25,0000.06,0000.39,0000.12,0000.31,18.8,24.8,09.1,06.3,0675.1,30.9
2021-05-28T14:17:00Z,00000200,00000000,0002.14,0001.18,0000.56,0000.67,0000.18,-000.02,0000.65,0000.58,0000.45,18.8,24.8,09.2,06.4,0675.0,30.9
2021-05-28T14:18:00Z,00000200,00000000,0002.00,0001.21,0000.46,0000.21,0000.45,-000.09,0000.53,0000.79,0000.39,18.8,24.8,08.9,06.2,0674.9,30.9
2021-05-28T14:19:00Z,00000200,00000000,0001.56,0001.09,0000.61,0000.74,0000.38,0000.16,0000.88,0000.68,0000.45,18.8,24.8,08.9,06.1,0675.0,30.9
2021-05-28T14:20:00Z,00000200,00000000,0002.02,0001.13,0000.68,0000.80,0000.38,0000.13,0000.46,0000.32,0000.42,18.8,24.8,08.9,06.2,0675.1,30.9
2021-05-28T14:21:00Z,00000200,00000000,0001.75,0001.40,0000.54,-000.30,0000.28,-000.03,0001.01,0000.76,0000.43,18.8,24.8,08.9,06.2,0675.1,30.9
2021-05-28T14:22:00Z,00000200,00000000,0002.05,0000.77,0000.78,0000.87,0000.20,-000.15,0000.39,0000.65,0000.93,18.8,24.8,08.9,06.2,0675.1,30.9
2021-05-28T14:23:00Z,00000200,00000000,0002.08,0001.23,0000.49,0000.02,0000.56,-000.12,0001.00,0000.68,0000.21,18.8,24.8,08.9,06.2,0675.0,30.9
2021-05-28T14:24:00Z,00000200,00000000,0001.66,0001.23,0000.81,0000.18,0000.48,-000.13,0000.54,0000.49,0000.48,18.8,24.8,08.8,06.1,0675.0,30.9
2021-05-28T14:25:00Z,00000200,00000000,0002.06,0001.53,0000.42,0000.52,0000.21,-000.11,0000.60,0000.76,0000.48,18.8,24.8,08.9,06.2,0675.0,30.9
2021-05-28T14:26:00Z,00000200,00000000,0001.42,0001.61,0001.12,0000.69,0000.41,0000.51,0000.51,0000.53,0000.45,18.8,24.8,08.8,06.1,0675.0,30.9
2021-05-28T14:27:00Z,00000200,00000000,0001.95,0001.38,0000.67,0000.96,0000.24,-000.30,0001.03,0000.74,0000.50,18.9,24.8,08.8,06.1,0674.9,30.9
2021-05-28T14:28:00Z,00000200,00000000,0001.71,0001.01,0000.69,0000.58,0000.38,0000.37,0000.52,0000.87,0000.81,18.9,24.8,09.0,06.2,0675.0,30.9
2021-05-28T14:29:00Z,00000200,00000000,0001.51,0000.92,0000.62,0000.28,0000.17,0000.46,0000.88,0000.31,0000.06,18.9,24.8,09.0,06.2,0675.0,30.9
2021-05-28T14:30:00Z,00000200,00000000,0001.02,0000.95,0000.51,0000.50,0000.11,-000.08,0000.67,0000.47,0000.41,18.9,24.9,08.9,06.2,0674.9,30.9
2021-05-28T14:31:00Z,00000200,00000000,0002.78,0001.42,0000.78,0000.00,0000.34,0000.45,0000.36,0000.92,0000.74,18.9,24.9,09.1,06.3,0675.0,30.9
2021-05-28T14:32:00Z,00000200,00000000,0001.63,0001.13,0000.56,-000.12,0000.50,-000.07,0000.86,0000.46,0000.26,18.9,24.9,09.0,06.2,0675.0,30.9
2021-05-28T14:33:00Z,00000200,00000000,0002.08,0000.96,0000.88,0000.51,0000.16,0000.25,0000.57,0000.32,0000.46,18.9,24.9,08.8,06.1,0674.9,30.9
2021-05-28T14:34:00Z,00000200,00000000,0002.31,0001.11,0000.65,0000.57,0000.40,0000.04,0000.46,0000.61,0000.54,18.9,24.9,08.7,06.1,0674.9,30.9
2021-05-28T14:35:00Z,00000200,00000000,0002.11,0001.32,0000.68,0000.10,0000.24,-000.07,0000.92,0000.79,0000.40,18.9,24.8,08.7,06.1,0675.0,30.9
2021-05-28T14:36:00Z,00000200,00000000,0001.59,0001.40,0000.50,0000.82,0000.26,-000.01,0000.51,0000.55,0000.41,18.9,24.9,08.7,06.0,0674.9,30.9
2021-05-28T14:37:00Z,00000200,00000000,0001.40,0001.26,0000.68,0000.52,0000.13,0000.07,0000.78,0000.35,0000.19,18.9,24.9,08.7,06.0,0675.0,30.9
2021-05-28T14:38:00Z,00000200,00000000,0002.21,0001.48,0000.37,0000.37,0000.27,-000.20,0000.55,0000.95,0000.60,18.9,24.9,08.8,06.1,0675.0,30.9
2021-05-28T14:39:00Z,00000200,00000000,0001.53,0001.25,0000.68,0000.29,0000.30,0000.04,0000.84,0000.69,0000.82,18.9,24.9,08.8,06.1,0675.0,30.9
2021-05-28T14:40:00Z,00000200,00000000,0001.51,0001.35,0000.83,0000.53,0000.03,0000.16,0000.31,0000.47,0000.17,18.9,24.9,08.8,06.1,0675.0,30.9
2021-05-28T14:41:00Z,00000200,00000000,0001.50,0001.12,0000.53,0001.00,0000.42,-000.16,0000.93,0000.23,0000.96,18.9,24.9,08.9,06.2,0674.9,30.9
2021-05-28T14:42:00Z,00000200,00000000,0001.92,0001.46,0000.53,-000.28,0000.18,-000.17,0000.76,0000.97,0000.01,18.9,24.9,08.8,06.1,0675.0,30.9
2021-05-28T14:43:00Z,00000200,00000000,0001.71,0001.36,0000.81,0000.42,0000.17,-000.05,0000.84,0000.83,0000.70,18.9,24.9,08.7,06.1,0675.0,30.9
2021-05-28T14:44:00Z,00000200,00000000,0001.68,0001.25,0000.56,0000.30,0000.30,-000.00,0000.71,0000.24,0000.42,18.9,24.9,08.9,06.2,0675.0,30.9
2021-05-28T14:45:00Z,00000200,00000000,0001.32,0001.25,0000.59,0000.78,0000.06,0000.25,0000.39,0000.74,0000.39,18.9,24.9,08.7,06.1,0675.0,30.9
2021-05-28T14:46:00Z,00000200,00000000,0001.75,0000.99,0000.44,0000.19,0000.14,-000.01,0000.57,0000.60,0000.49,18.9,24.9,08.7,06.0,0675.0,30.9
2021-05-28T14:47:00Z,00000200,00000000,0002.04,0001.26,0000.53,0000.49,0000.45,-000.19,0000.91,0000.70,0000.48,18.9,24.9,08.7,06.1,0675.0,30.9
2021-05-28T14:48:00Z,00000200,00000000,0000.66,0001.31,0000.57,0000.35,0000.29,-000.09,0000.28,0000.58,0000.47,18.9,24.9,08.7,06.1,0675.0,30.9
2021-05-28T14:49:00Z,00000200,00000000,0001.39,0001.33,0000.93,0000.21,0000.18,0000.04,0000.82,0000.22,0000.49,18.9,24.9,08.5,05.9,0674.9,30.9
2021-05-28T14:50:00Z,00000200,00000000,0001.51,0001.06,0000.87,0000.07,0000.35,0000.34,0000.87,0000.90,0000.30,18.9,24.9,08.6,05.9,0675.0,30.9
2021-05-28T14:51:00Z,00000200,00000000,0001.88,0001.31,0000.34,0000.87,-000.02,0000.17,0000.37,0000.62,0000.52,18.9,24.9,08.6,05.9,0674.9,30.9
2021-05-28T14:52:00Z,00000200,00000000,0001.87,0001.49,0000.44,0000.28,0000.09,-000.47,0001.02,0000.56,0000.45,18.9,24.9,08.5,05.9,0674.9,30.9
2021-05-28T14:53:00Z,00000200,00000000,0002.03,0000.96,0000.70,-000.02,0000.27,0000.09,0000.36,0000.84,0000.53,18.9,24.9,08.7,06.0,0675.0,30.9
2021-05-28T14:54:00Z,00000200,00000000,0001.92,0001.43,0000.60,0000.61,0000.11,0000.05,0000.87,0000.56,0000.67,18.9,24.9,08.6,06.0,0674.9,30.9
2021-05-28T14:55:00Z,00000200,00000000,0001.73,0000.91,0000.48,0000.34,0000.19,0000.21,0000.64,0000.32,0000.28,18.9,24.9,08.6,06.0,0674.9,30.9
2021-05-28T14:56:00Z,00000200,00000000,0001.45,0001.33,0000.62,0000.63,0000.19,-000.41,0000.55,0000.59,0000.46,18.9,24.9,08.6,05.9,0674.9,30.9
2021-05-28T14:57:00Z,00000200,40000000,,,,,,,0000.15,0000.20,0000.26,19.0,24.9,08.5,05.9,0674.8,30.9
2021-05-28T14:58:00Z,00000200,60000000,,,,,,,0000.23,0000.62,0000.15,18.8,25.0,08.7,05.9,0674.0,30.9
2021-05-28T14:59:00Z,00000200,20000000,,,,,,,0000.14,-000.32,-000.02,18.8,25.1,08.7,05.9,0673.9,30.9
